{"data":{"norad_id":32951,"epoch":"2026-09-20T03:50:05.137152Z","epoch_age_seconds":47715,"freshness":"FRESH","line1":"1 32951U 08024A   26263.15978168  .00000021  00000+0  00000+0 0  9999","line2":"2 32951   0.0142 117.8423 0002984  55.1629 120.5843  1.00272892 46808","mean_motion":1.00272892,"eccentricity":0.0002984,"inclination_deg":0.0142,"raan_deg":117.8423,"arg_perigee_deg":55.1629,"mean_anomaly_deg":120.5843,"bstar":0,"rev_number":4680,"period_min":1436.0810497018,"perigee_km":35773.702768346,"apogee_km":35798.866495175,"semimajor_km":42164.42163176,"source":"CELESTRAK","updated_at":"2026-09-20T09:00:35.517247Z"}}